Joplin, MO

4:52 PM CDT on March 27, 2017 (GMT -0500)
Joplin Regional

Weather History for KJLN - April, 2013

Change the Weather History Date:

Sunday, April 14, 2013

  Actual Average Record
Temperature  
Mean Temperature 68 °F 58 °F  
Max Temperature 79 °F 70 °F 88 °F (2006)
Min Temperature 56 °F 46 °F 28 °F (1950)
Degree Days  
Heating Degree Days 0 8  
Month to date heating degree days 165 141  
Since 1 July heating degree days 3938 3903  
Cooling Degree Days 3 1  
Month to date cooling degree days 14 14  
Year to date cooling degree days 15 24  
Growing Degree Days 18 (Base 50)    
Moisture  
Dew Point 47 °F    
Average Humidity 64    
Maximum Humidity 97    
Minimum Humidity 30    
Precipitation  
Precipitation 0.09 in 0.14 in 2.58 in (1999)
Month to date precipitation 1.17 1.79  
Year to date precipitation 9.02 9.56  
Snow  
Snow 0.00 in - - ()
Month to date snowfall T  
Snow Depth 0.00 in    
Sea Level Pressure  
Sea Level Pressure 29.61 in    
Wind  
Wind Speed 16 mph (South)    
Max Wind Speed 33 mph    
Max Gust Speed 41 mph    
Visibility 10 miles    
Events Rain    
T = Trace of Precipitation, MM = Missing Value Source: NWS Daily Summary

Daily Weather History Graph

Daily Weather History Graph

Search for Another Location

Airport or City:

Trip Planner

Search our weather history database for the weather conditions in past years. The results will help you decide how hot, cold, wet, or windy it might be!

Date:

Astronomy

Apr. 14, 2013 Rise Set
Actual Time 6:44 AM CDT 7:52 PM CDT
Civil Twilight 6:17 AM CDT 8:19 PM CDT
Nautical Twilight 5:45 AM CDT 8:51 PM CDT
Astronomical Twilight 5:12 AM CDT 9:24 PM CDT
Moon 9:26 AM CDT (4/14) No Moon Set
Length of Visible Light 14h 01m
Length of Day
13h 07m
Waxing Crescent, 17% of the Moon is Illuminated
Apr 14
Waxing Crescent
Apr 18
First Quarter
Apr 25
Full
May 2
Last Quarter
May 9
New

Hourly Weather History & Observations

Time (CDT) Temp. Dew Point Humidity Pressure Visibility Wind Dir Wind Speed Gust Speed Precip Events Conditions
12:53 AM 60.1 °F 43.0 °F 53% 29.73 in 10.0 mi South 16.1 mph - N/A   Clear
1:53 AM 60.1 °F 43.0 °F 53% 29.71 in 10.0 mi SSE 13.8 mph - N/A   Clear
2:53 AM 59.0 °F 44.1 °F 58% 29.69 in 10.0 mi South 16.1 mph 26.5 mph N/A   Clear
3:53 AM 57.9 °F 44.1 °F 60% 29.67 in 10.0 mi South 17.3 mph - N/A   Clear
4:53 AM 57.0 °F 44.1 °F 62% 29.65 in 10.0 mi South 15.0 mph - N/A   Clear
5:53 AM 57.0 °F 44.1 °F 62% 29.63 in 10.0 mi South 11.5 mph - N/A   Clear
6:53 AM 57.0 °F 45.0 °F 64% 29.65 in 10.0 mi SSE 15.0 mph 21.9 mph N/A   Clear
7:53 AM 60.1 °F 46.0 °F 60% 29.65 in 10.0 mi South 16.1 mph 24.2 mph N/A   Clear
8:53 AM 66.0 °F 46.9 °F 50% 29.65 in 10.0 mi South 13.8 mph 23.0 mph N/A   Clear
9:53 AM 69.1 °F 46.9 °F 45% 29.64 in 10.0 mi South 19.6 mph 32.2 mph N/A   Clear
10:53 AM 71.1 °F 45.0 °F 39% 29.62 in 10.0 mi South 26.5 mph 34.5 mph N/A   Clear
11:53 AM 73.0 °F 45.0 °F 37% 29.59 in 10.0 mi South 26.5 mph 40.3 mph N/A   Clear
12:53 PM 75.9 °F 43.0 °F 31% 29.55 in 10.0 mi South 21.9 mph 36.8 mph N/A   Clear
1:53 PM 77.0 °F 46.0 °F 33% 29.54 in 10.0 mi South 19.6 mph - N/A   Clear
2:53 PM 78.1 °F 45.0 °F 31% 29.52 in 10.0 mi SSW 19.6 mph 26.5 mph N/A   Clear
3:53 PM 78.1 °F 46.9 °F 33% 29.51 in 10.0 mi South 21.9 mph 29.9 mph N/A   Clear
4:53 PM 75.9 °F 48.0 °F 37% 29.49 in 10.0 mi South 21.9 mph 26.5 mph N/A   Clear
5:53 PM 77.0 °F 48.0 °F 36% 29.50 in 10.0 mi South 17.3 mph 27.6 mph N/A   Clear
6:53 PM 75.0 °F 48.0 °F 38% 29.52 in 10.0 mi South 13.8 mph 21.9 mph N/A   Mostly Cloudy
7:53 PM 72.0 °F 48.0 °F 43% 29.54 in 10.0 mi South 11.5 mph - N/A   Clear
8:53 PM 69.1 °F 53.1 °F 57% 29.60 in 10.0 mi WNW 18.4 mph 23.0 mph 0.00 in Rain Light Rain
9:53 PM 60.1 °F 57.0 °F 90% 29.63 in 10.0 mi SE 4.6 mph - 0.09 in   Mostly Cloudy
10:53 PM 61.0 °F 59.0 °F 93% 29.66 in 10.0 mi NNE 3.5 mph - N/A   Overcast
11:53 PM 60.1 °F 54.0 °F 80% 29.70 in 10.0 mi North 8.1 mph - N/A   Overcast